Home > Weather > Davenport > Past weeks

Flag for USA Past Weather in Davenport, Iowa, USA — Yesterday and Last 2 Weeks

Now
78 °F

Scattered clouds.


Feels Like: 80 °F
Forecast: 66 / 78 °F
Wind: 17 mph from South

Location: Davenport Municipal Airport

Current Time: May 27, 2016 at 7:07:06 PM

Latest Report: May 27, 2016 at 5:52 PM


Visibility: 10 mi

Pressure: 29.74 "Hg

Humidity: 71%

Dew Point: 68 °F

Location of DavenportLocation

Past Weather in Davenport — Graph

°F

Davenport Temperature Yesterday

Maximum temperature yesterday: 84 °F (at 3:52 PM)
Minimum temperature yesterday: 62 °F (at 6:52 AM)
Average temperature yesterday: 75 °F

High & Low Weather Summary for the Past Weeks

 TemperatureHumidityPressure
High88 °F (May 24, 2:52 PM)93% (May 25, 4:52 AM)30.30 "Hg (May 25, 4:52 AM)
Low36 °F (May 15, 3:52 AM)19% (May 22, 4:52 PM)29.74 "Hg (May 27, 5:52 PM)
Average62 °F57%30.05 "Hg
* Reported May 12 5:52 PM — May 27 5:52 PM, Davenport, Weather by CustomWeather, © 2016

Note: Actual official high and low records may vary slightly from our data, if they occured in-between our weather recording intervals... More about our weather records

Advertising

Davenport Weather History for the Previous 24 Hours

Scroll right to see more
 ConditionsComfort  
Time TempWeatherWind HumidityBarometerVisibility
5:52 PM
Fri, May 27
78 °FScattered clouds.17 mph71%29.74 "Hg10 mi
4:52 PM77 °FPassing clouds.16 mph74%29.75 "Hg10 mi
3:52 PM75 °FLight rain. Mostly cloudy.13 mph79%29.78 "Hg10 mi
2:52 PM72 °FMostly cloudy.21 mph81%29.79 "Hg10 mi
1:52 PM74 °FMostly cloudy.15 mph76%29.78 "Hg10 mi
12:52 PM74 °FMostly cloudy.14 mph76%29.79 "Hg10 mi
11:52 AM73 °FMostly cloudy.23 mph76%29.80 "Hg10 mi
10:52 AM72 °FPartly sunny.23 mph81%29.79 "Hg10 mi
9:52 AM70 °FScattered clouds.17 mph84%29.80 "Hg10 mi
8:52 AM67 °FPassing clouds.15 mph90%29.83 "Hg10 mi
7:52 AM66 °FPartly sunny.16 mph87%29.83 "Hg10 mi
6:52 AM65 °FPassing clouds.14 mph87%29.82 "Hg10 mi
5:52 AM63 °FOvercast.5 mph93%29.80 "Hg10 mi
4:52 AM63 °FMostly cloudy.6 mph90%29.79 "Hg10 mi
3:52 AM63 °FOvercast.8 mph90%29.84 "Hg10 mi
3:00 AM65 °FHeavy rain. Mostly cloudy.16 mph81%29.92 "Hg2 mi
1:52 AM69 °FClear.7 mph79%29.85 "Hg10 mi
12:52 AM70 °FClear.6 mph81%29.84 "Hg10 mi
11:52 PM
Thu, May 26
71 °FClear.7 mph81%29.85 "Hg10 mi
10:52 PM73 °FClear.12 mph74%29.86 "Hg10 mi
9:52 PM76 °FPassing clouds.10 mph67%29.87 "Hg10 mi
8:52 PM77 °FPassing clouds.3 mph69%29.86 "Hg10 mi
7:52 PM79 °FSunny.3 mph65%29.84 "Hg10 mi
Weather by CustomWeather, © 2016

See weather overviewHow to use our weather pages